GW4278 Weather Reports


Display with metric or nautical units.
time (UTC)temp
F
wind
direction
speed
MPH
gust
MPH
rain 1hr
in
rain 24hr
in
rain mn
in
humidity
%
barometer
mb
20260506123510 24 74 0.0 2.0 0.00 0.17 0.00 92 1017.9
20260506123021 24 74 0.0 2.0 0.00 0.17 0.00 91 1017.8
20260506122508 24 74 1.0 3.0 0.00 0.17 0.00 91 1017.6
20260506122005 24 74 1.0 2.0 0.00 0.17 0.00 91 1017.7
20260506121508 24 76 1.0 3.0 0.00 0.17 0.00 91 1017.7
20260506121004 24 75 1.0 3.0 0.00 0.17 0.00 91 1017.7
20260506120506 24 76 1.0 2.0 0.00 0.17 0.00 91 1017.7
20260506120015 24 76 1.0 2.0 0.00 0.17 0.00 91 1017.5
20260506115506 24 76 1.0 2.0 0.00 0.17 0.00 91 1017.5
20260506115005 24 81 0.0 2.0 0.00 0.17 0.00 91 1017.5
20260506114513 25 88 0.0 2.0 0.00 0.17 0.00 91 1017.6
20260506114007 25 89 0.0 2.0 0.00 0.17 0.00 91 1017.6
20260506113511 25 89 0.0 2.0 0.00 0.17 0.00 91 1017.5
20260506113018 25 89 0.0 2.0 0.00 0.17 0.00 91 1017.4
20260506112507 25 92 0.0 2.0 0.00 0.17 0.00 91 1017.3
20260506112009 25 96 0.0 2.0 0.00 0.17 0.00 91 1017.1
20260506111523 25 139 0.0 2.0 0.00 0.17 0.00 91 1017.0
20260506111007 25 83 0.0 2.0 0.00 0.17 0.00 91 1016.9
20260506110508 25 110 0.0 2.0 0.00 0.17 0.00 91 1016.8
20260506110007 25 110 0.0 2.0 0.00 0.17 0.00 91 1016.8
20260506105503 25 110 0.0 2.0 0.00 0.17 0.00 92 1016.8
20260506105004 25 99 0.0 2.0 0.00 0.17 0.00 92 1016.8
20260506104521 25 90 0.0 2.0 0.00 0.17 0.00 92 1016.7
20260506104009 25 88 0.0 2.0 0.00 0.17 0.00 92 1016.7
20260506103508 25 90 1.0 2.0 0.00 0.17 0.00 92 1016.7
20260506103034 25 123 0.0 2.0 0.00 0.17 0.00 92 1016.7
20260506102509 25 105 0.0 2.0 0.00 0.17 0.00 92 1016.8
20260506102007 25 94 0.0 2.0 0.00 0.17 0.00 92 1016.7
20260506101520 25 155 0.0 2.0 0.00 0.17 0.00 92 1016.6
20260506101009 25 125 0.0 2.0 0.00 0.17 0.00 92 1016.8
20260506100511 25 132 0.0 2.0 0.00 0.17 0.00 92 1016.9
20260506100023 25 122 0.0 2.0 0.00 0.17 0.00 92 1017.0
20260506095509 25 122 0.0 1.0 0.00 0.17 0.00 92 1016.6
20260506095009 25 122 0.0 0.0 0.00 0.17 0.00 92 1016.7
20260506094504 25 122 0.0 0.0 0.00 0.17 0.00 92 1016.9
20260506094006 25 122 0.0 2.0 0.00 0.17 0.00 92 1017.0
20260506093504 25 122 0.0 2.0 0.00 0.17 0.00 92 1017.0
20260506093019 25 122 0.0 2.0 0.00 0.17 0.00 92 1017.0
20260506092504 25 122 0.0 1.0 0.00 0.17 0.00 92 1016.9
20260506092007 25 111 0.0 2.0 0.00 0.17 0.00 92 1016.7
20260506091519 25 105 0.0 2.0 0.00 0.17 0.00 92 1016.8
20260506091010 25 105 0.0 2.0 0.00 0.17 0.00 92 1016.9
20260506090509 25 105 0.0 2.0 0.00 0.17 0.00 92 1016.8
20260506090021 25 105 0.0 2.0 0.00 0.17 0.00 92 1017.0
20260506085507 25 150 0.0 2.0 0.00 0.17 0.00 92 1017.1
20260506085009 25 150 0.0 2.0 0.00 0.17 0.00 92 1016.9
20260506084549 25 150 0.0 2.0 0.00 0.17 0.00 92 1016.9
20260506084012 25 114 0.0 2.0 0.00 0.18 0.00 91 1017.0
20260506083511 25 90 0.0 2.0 0.00 0.18 0.00 91 1016.9
20260506083026 26 90 0.0 2.0 0.00 0.19 0.00 91 1017.0
20260506082504 26 90 0.0 2.0 0.00 0.19 0.00 91 1017.0
20260506082004 26 90 0.0 2.0 0.00 0.19 0.00 91 1017.1
20260506081510 26 90 0.0 2.0 0.00 0.19 0.00 91 1017.0
20260506081010 26 90 0.0 2.0 0.00 0.19 0.00 91 1017.1
20260506080509 26 90 0.0 2.0 0.00 0.19 0.00 91 1017.1
20260506073511 26 88 0.0 3.0 0.00 0.24 0.00 91 1017.0
20260506073026 26 74 0.0 2.0 0.00 0.24 0.00 91 1017.1
20260506072510 26 80 0.0 2.0 0.00 0.24 0.00 91 1017.1
20260506072010 26 89 0.0 2.0 0.00 0.24 0.00 91 1017.2
20260506071527 26 87 0.0 3.0 0.00 0.25 0.00 91 1017.3
20260506071008 26 72 1.0 3.0 0.00 0.26 0.00 91 1017.2
20260506070506 26 81 1.0 3.0 0.00 0.26 0.00 91 1017.3
20260506062509 27 142 0.0 2.0 0.00 0.26 0.00 92 1017.1
20260506062011 27 94 0.0 3.0 0.00 0.26 0.00 92 1017.0
20260506061526 27 81 0.0 3.0 0.00 0.26 0.00 92 1016.9
20260506061011 27 73 0.0 3.0 0.00 0.26 0.00 92 1017.0
20260506060510 27 72 0.0 3.0 0.00 0.26 0.00 92 1017.0
20260506051013 27 69 0.0 2.0 0.00 0.26 0.26 92 1016.5
20260506050510 27 69 0.0 2.0 0.00 0.26 0.26 91 1016.4
20260506045007 27 69 0.0 0.0 0.00 0.26 0.26 91 1016.4
20260506044504 27 69 0.0 0.0 0.00 0.26 0.26 91 1016.4
20260506044004 27 69 0.0 2.0 0.00 0.26 0.26 91 1016.4
20260506043505 27 69 0.0 2.0 0.00 0.26 0.26 91 1016.4
20260506043003 27 69 0.0 0.0 0.00 0.26 0.26 91 1016.3
20260506042504 27 69 0.0 0.0 0.00 0.26 0.26 91 1016.4
20260506042003 27 69 0.0 0.0 0.00 0.26 0.26 91 1016.3
20260506041502 27 69 0.0 0.0 0.00 0.26 0.26 91 1016.3
20260506041002 27 69 0.0 2.0 0.00 0.26 0.26 91 1016.2
20260506040502 27 69 0.0 2.0 0.00 0.26 0.26 91 1016.2
20260506040006 27 69 0.0 2.0 0.00 0.26 0.26 91 1016.1
20260506035503 27 69 0.0 0.0 0.00 0.26 0.26 91 1016.1
20260506035007 27 69 0.0 0.0 0.00 0.26 0.26 91 1016.0
20260506034511 27 69 0.0 2.0 0.00 0.26 0.26 91 1015.9
20260506034008 27 69 0.0 2.0 0.00 0.26 0.26 91 1016.0
20260506033506 27 69 0.0 2.0 0.00 0.26 0.26 91 1016.0
20260506033002 27 69 0.0 2.0 0.00 0.26 0.26 91 1015.9
20260506032503 27 69 0.0 2.0 0.00 0.26 0.26 91 1015.8
20260506032003 27 69 0.0 2.0 0.00 0.26 0.26 91 1015.8
20260506031503 27 69 0.0 0.0 0.00 0.26 0.26 91 1015.8
20260506031003 27 69 0.0 2.0 0.00 0.26 0.26 91 1015.7
20260506030504 27 69 0.0 2.0 0.00 0.26 0.26 90 1015.6
20260506030004 27 69 0.0 0.0 0.00 0.26 0.26 90 1015.5
20260506025503 27 69 0.0 0.0 0.00 0.26 0.26 90 1015.6
20260506025005 27 69 0.0 0.0 0.00 0.26 0.26 90 1015.5
20260506024509 27 69 0.0 0.0 0.00 0.26 0.26 90 1015.4
20260506024008 27 69 0.0 2.0 0.00 0.26 0.26 90 1015.2
20260506023504 27 69 0.0 2.0 0.00 0.26 0.26 90 1015.1
20260506023012 27 69 0.0 2.0 0.00 0.26 0.26 90 1015.0
20260506022508 27 69 0.0 2.0 0.00 0.26 0.26 90 1014.9
20260506022008 27 69 0.0 2.0 0.00 0.26 0.26 90 1014.8
20260506021503 28 69 0.0 2.0 0.00 0.26 0.26 90 1014.6
20260506021004 28 69 0.0 2.0 0.00 0.26 0.26 90 1014.6
20260506020503 28 69 0.0 2.0 0.01 0.26 0.26 90 1014.5
20260506020004 28 69 0.0 2.0 0.01 0.26 0.26 90 1014.5
20260506015503 28 69 0.0 2.0 0.01 0.26 0.26 90 1014.4
20260506015004 28 69 0.0 2.0 0.01 0.26 0.26 90 1014.4
20260506014505 28 76 0.0 2.0 0.01 0.26 0.26 89 1014.2
20260506014004 28 85 0.0 2.0 0.01 0.26 0.26 89 1014.1
20260506013503 28 85 0.0 2.0 0.01 0.26 0.26 89 1014.2
20260506013008 28 85 0.0 2.0 0.01 0.27 0.26 89 1014.2
20260506012504 28 85 0.0 2.0 0.01 0.28 0.26 89 1014.1
20260506012005 28 85 0.0 2.0 0.01 0.28 0.26 89 1014.1
20260506011512 28 85 0.0 2.0 0.01 0.28 0.26 89 1013.9
20260506011007 28 142 0.0 2.0 0.01 0.28 0.26 89 1013.7
20260506010508 28 75 0.0 2.0 0.00 0.27 0.25 89 1013.8
20260506010020 28 70 0.0 2.0 0.00 0.27 0.25 89 1013.9
20260506005503 28 70 0.0 2.0 0.00 0.27 0.25 89 1013.8
20260506005004 28 67 0.0 3.0 0.00 0.28 0.25 89 1013.8
20260506004505 28 61 1.0 3.0 0.00 0.28 0.25 88 1013.8
20260506004006 29 63 1.0 2.0 0.00 0.29 0.25 88 1013.9
20260506003507 29 67 0.0 2.0 0.01 0.30 0.25 88 1013.9
20260506003008 29 67 1.0 3.0 0.01 0.30 0.25 88 1013.9
20260506002506 29 77 1.0 3.0 0.01 0.31 0.25 87 1013.9
20260506002006 29 77 0.0 2.0 0.01 0.32 0.25 87 1013.8
20260506001508 29 76 0.0 3.0 0.01 0.34 0.25 87 1013.6
20260506001004 29 76 0.0 3.0 0.01 0.36 0.25 87 1013.6
20260506000509 29 74 0.0 3.0 0.01 0.39 0.25 87 1013.6
20260506000015 29 80 0.0 3.0 0.01 0.40 0.25 87 1013.7
20260505235508 30 76 1.0 3.0 0.01 0.41 0.25 87 1013.6
20260505235008 30 74 0.0 2.0 0.01 0.42 0.25 86 1013.6
20260505234523 30 86 0.0 2.0 0.01 0.43 0.25 86 1013.6
20260505234004 30 83 0.0 2.0 0.01 0.44 0.25 86 1013.6
20260505233508 30 86 0.0 2.0 0.00 0.43 0.24 86 1013.4
20260505233003 30 153 0.0 2.0 0.00 0.44 0.24 86 1013.4
20260505232503 30 88 0.0 2.0 0.00 0.44 0.24 86 1013.4
20260505232006 30 106 0.0 2.0 0.00 0.45 0.24 87 1013.4
20260505231512 30 107 0.0 2.0 0.00 0.47 0.24 88 1013.5
20260505231008 29 146 0.0 2.0 0.00 0.49 0.24 88 1013.6
20260505230504 29 146 0.0 2.0 0.00 0.49 0.24 89 1013.7
20260505230023 29 146 0.0 2.0 0.00 0.49 0.24 90 1013.6
20260505225505 29 76 0.0 2.0 0.00 0.49 0.24 90 1013.5
20260505225009 28 76 0.0 2.0 0.00 0.49 0.24 90 1013.5
20260505224517 28 76 0.0 3.0 0.00 0.49 0.24 90 1013.6
20260505224009 28 76 0.0 3.0 0.00 0.49 0.24 90 1013.6
20260505223510 28 78 1.0 3.0 0.00 0.49 0.24 90 1013.6
20260505223021 28 81 2.0 3.0 0.00 0.49 0.24 89 1013.6
20260505222512 28 73 1.0 3.0 0.00 0.49 0.24 89 1013.5
20260505222004 28 87 1.0 3.0 0.00 0.49 0.24 89 1013.6
20260505221507 29 78 2.0 3.0 0.00 0.49 0.24 89 1013.6
20260505221003 29 74 0.0 4.0 0.00 0.49 0.24 88 1013.6
20260505220504 29 84 2.0 4.0 0.01 0.49 0.24 88 1013.5
20260505220009 29 78 1.0 3.0 0.01 0.49 0.24 88 1013.5
20260505215508 28 85 0.0 3.0 0.01 0.49 0.24 87 1013.4
20260505215007 29 76 0.0 3.0 0.01 0.49 0.24 87 1013.2
20260505214516 29 125 0.0 6.0 0.01 0.49 0.24 87 1013.3
20260505214013 29 79 1.0 7.0 0.01 0.49 0.24 86 1013.2
20260505213510 29 99 1.0 7.0 0.01 0.49 0.24 87 1013.3
20260505213033 30 111 2.0 9.0 0.01 0.49 0.24 86 1013.4
20260505212510 30 87 1.0 9.0 0.01 0.49 0.24 86 1013.3
20260505212010 30 86 2.0 4.0 0.01 0.49 0.24 86 1013.2
20260505211524 30 119 1.0 4.0 0.01 0.49 0.24 85 1013.1
20260505211009 30 59 1.0 4.0 0.01 0.49 0.24 85 1013.2
20260505210502 30 80 1.0 5.0 0.00 0.48 0.23 85 1013.2
20260505210012 30 132 1.0 5.0 0.00 0.48 0.23 85 1013.2
20260505205509 30 152 0.0 5.0 0.00 0.48 0.23 85 1013.2
20260505205008 31 138 0.0 4.0 0.01 0.48 0.23 85 1013.2
20260505204513 31 157 0.0 4.0 0.01 0.48 0.23 85 1013.3
20260505204005 31 205 1.0 4.0 0.01 0.48 0.23 85 1013.2
20260505203508 32 176 0.0 2.0 0.01 0.48 0.23 85 1013.3
20260505203028 32 200 0.0 4.0 0.01 0.48 0.23 85 1013.4
20260505202506 32 107 0.0 4.0 0.01 0.48 0.23 86 1013.4
20260505202010 33 106 0.0 2.0 0.01 0.48 0.23 87 1013.3
20260505201530 32 106 0.0 3.0 0.02 0.48 0.23 87 1013.4
20260505201014 32 123 0.0 3.0 0.02 0.48 0.23 86 1013.6
20260505200510 33 169 0.0 2.0 0.02 0.48 0.23 86 1013.7
20260505200024 33 115 0.0 2.0 0.02 0.48 0.23 87 1013.9
20260505195511 33 115 0.0 2.0 0.02 0.48 0.23 87 1013.9
20260505195002 33 115 0.0 2.0 0.02 0.47 0.22 87 1014.0
20260505194512 33 115 0.0 2.0 0.02 0.47 0.22 87 1013.9
20260505194007 33 163 0.0 2.0 0.02 0.47 0.22 87 1013.8
20260505193506 33 163 0.0 2.0 0.02 0.47 0.22 87 1013.9
20260505193013 32 120 0.0 4.0 0.03 0.47 0.22 87 1014.0
20260505192512 32 147 0.0 4.0 0.03 0.47 0.22 87 1014.2
20260505192007 32 147 0.0 4.0 0.03 0.47 0.22 87 1014.3
20260505191522 32 166 0.0 2.0 0.02 0.46 0.21 88 1014.3
20260505191009 32 161 0.0 2.0 0.03 0.46 0.21 88 1014.5
20260505190510 32 161 0.0 2.0 0.03 0.46 0.21 88 1014.5
20260505190030 32 161 0.0 2.0 0.03 0.46 0.21 88 1014.5
20260505185512 32 161 0.0 2.0 0.03 0.46 0.21 88 1014.5
20260505185010 32 125 0.0 7.0 0.03 0.45 0.20 88 1014.5
20260505184527 32 154 1.0 7.0 0.03 0.45 0.20 87 1014.4
20260505184011 32 167 0.0 6.0 0.03 0.45 0.20 87 1014.5
20260505183504 33 92 0.0 7.0 0.04 0.45 0.20 86 1014.6
20260505183019 33 151 1.0 7.0 0.03 0.44 0.19 85 1014.3
20260505182507 33 161 1.0 4.0 0.03 0.44 0.19 85 1014.3
20260505182008 34 181 1.0 4.0 0.03 0.44 0.19 85 1014.2
20260505181504 34 187 0.0 3.0 0.03 0.44 0.19 86 1014.3
20260505181004 33 144 0.0 2.0 0.03 0.43 0.18 87 1014.4
20260505180503 33 142 0.0 2.0 0.03 0.43 0.18 87 1014.5
20260505180003 33 142 0.0 3.0 0.03 0.43 0.18 86 1014.4
20260505175503 33 140 0.0 3.0 0.04 0.43 0.18 86 1014.6
20260505175003 33 152 0.0 3.0 0.03 0.42 0.17 86 1014.7
20260505174509 33 166 0.0 3.0 0.03 0.42 0.17 86 1014.7
20260505174004 33 167 0.0 2.0 0.04 0.42 0.17 86 1014.7
20260505173505 33 161 0.0 2.0 0.03 0.41 0.16 86 1014.7
20260505173012 33 161 0.0 2.0 0.03 0.41 0.16 86 1014.8
20260505172504 33 169 0.0 2.0 0.04 0.41 0.16 85 1014.8
20260505172010 33 84 0.0 2.0 0.04 0.41 0.16 86 1014.9
20260505171515 33 84 0.0 3.0 0.04 0.41 0.16 86 1014.9
20260505171010 34 84 0.0 3.0 0.03 0.40 0.15 85 1015.0
20260505170508 34 77 0.0 3.0 0.03 0.40 0.15 84 1015.0
20260505170002 34 86 0.0 3.0 0.04 0.40 0.15 84 1015.2
20260505165503 34 116 0.0 2.0 0.03 0.39 0.14 85 1015.5
20260505165003 34 148 0.0 2.0 0.03 0.39 0.14 85 1015.2
20260505164503 34 148 0.0 2.0 0.03 0.39 0.14 85 1015.2
20260505164003 34 90 0.0 3.0 0.02 0.38 0.13 86 1015.0
20260505163503 33 90 0.0 3.0 0.03 0.38 0.13 87 1015.0
20260505163010 33 89 1.0 3.0 0.03 0.38 0.13 87 1015.1
20260505162504 33 80 1.0 3.0 0.02 0.37 0.12 87 1015.0
20260505162007 33 91 0.0 4.0 0.02 0.37 0.12 87 1015.0
20260505161510 33 150 0.0 5.0 0.02 0.37 0.12 87 1015.1
20260505161007 32 153 1.0 5.0 0.02 0.37 0.12 87 1015.3
20260505160507 32 79 0.0 2.0 0.02 0.37 0.12 87 1015.3
20260505153003 33 106 0.0 2.0 0.00 0.35 0.10 87 1015.5
20260505152504 33 106 0.0 2.0 0.00 0.35 0.10 87 1015.5
20260505152005 33 106 0.0 0.0 0.01 0.35 0.10 88 1015.5
20260505151508 33 106 0.0 0.0 0.01 0.35 0.10 88 1015.5
20260505151004 32 106 0.0 0.0 0.01 0.35 0.10 89 1015.4
20260505150508 32 106 0.0 0.0 0.01 0.35 0.10 90 1015.5
20260505140506 31 106 0.0 0.0 0.00 0.34 0.09 93 1015.5
20260505125009 30 106 0.0 0.0 0.00 0.34 0.09 92 1015.0
20260505124516 30 101 0.0 0.0 0.00 0.34 0.09 92 1014.9
20260505124007 31 100 0.0 0.0 0.00 0.34 0.09 92 1015.1